CDT,Max TemperatureF,Mean TemperatureF,Min TemperatureF,Max Dew PointF,MeanDew PointF,Min DewpointF,Max Humidity, Mean Humidity, Min Humidity, Max Sea Level PressureIn, Mean Sea Level PressureIn, Min Sea Level PressureIn, Max VisibilityMiles, Mean VisibilityMiles, Min VisibilityMiles, Max Wind SpeedMPH, Mean Wind SpeedMPH, Max Gust SpeedMPH,PrecipitationIn, CloudCover, Events, WindDirDegrees
2012-10-1,65,60,56,66,60,54,100,97,78,29.83,29.66,29.54,10,8,2,14,5,20,1.23,7,Rain-Thunderstorm,83
2012-10-2,65,60,54,61,57,54,100,89,69,29.97,29.79,29.62,10,9,1,10,5,,0.04,8,Rain,232
2012-10-3,73,63,53,58,53,49,100,71,41,30.18,30.09,29.97,10,8,1,9,3,,0.00,1,,204
2012-10-4,77,66,55,61,57,55,100,70,46,30.28,30.22,30.18,10,9,2,9,1,,0.00,1,,226
2012-10-5,79,65,50,63,57,50,100,66,43,30.20,30.09,29.98,10,8,0,14,3,18,0.00,3,Fog-Rain,231
2012-10-6,60,51,42,48,37,29,100,65,31,30.20,30.14,30.07,10,10,2,14,7,23,0.21,5,Rain,356
2012-10-7,58,50,42,39,36,32,84,63,37,30.21,30.16,30.12,10,10,10,8,4,,0.00,4,Rain,334
2012-10-8,59,50,40,43,38,34,100,69,38,30.24,30.18,30.13,10,10,5,6,1,,0.00,3,,346
2012-10-9,63,51,39,47,40,38,100,62,40,30.18,30.10,30.02,10,9,0,6,1,,0.00,0,Fog,181
2012-10-10,62,50,36,51,41,32,100,70,33,30.26,30.14,30.02,10,10,10,12,3,17,0.00,3,,294
2012-10-11,65,48,32,46,36,32,100,70,28,30.30,30.25,30.21,10,10,10,9,1,,0.00,2,,227
2012-10-12,65,56,47,52,47,43,100,78,46,30.33,30.27,30.21,10,10,10,7,1,,0.00,6,Rain,68
2012-10-13,74,59,44,60,55,44,100,79,61,30.28,30.19,30.09,10,10,7,12,4,18,0.00,2,Rain,180
2012-10-14,73,68,62,66,58,53,100,72,60,30.08,29.96,29.85,10,10,4,22,11,37,0.25,5,Rain,208
2012-10-15,67,55,43,57,47,41,100,73,38,30.01,29.97,29.91,10,9,0,10,3,20,0.25,3,Fog,289
2012-10-16,70,61,52,47,45,41,82,51,37,30.02,29.94,29.84,10,7,1,9,2,,0.00,0,,174
2012-10-17,76,64,53,49,46,42,83,54,32,29.86,29.75,29.56,10,10,10,16,6,24,0.00,0,,182
2012-10-18,66,58,51,57,42,27,100,61,24,29.76,29.71,29.56,10,10,4,20,11,32,0.40,4,Rain-Thunderstorm,233
2012-10-19,56,52,49,41,37,34,70,57,45,29.82,29.72,29.66,10,10,10,18,7,25,0.00,6,,232
2012-10-20,57,52,47,46,43,41,83,70,56,30.01,29.92,29.81,10,10,10,12,3,,0.00,7,,255
2012-10-21,74,57,40,47,45,41,100,66,34,30.14,30.08,30.01,10,10,5,8,2,,0.00,0,,165
2012-10-22,78,68,58,53,49,47,80,55,33,30.18,30.13,30.09,10,10,7,9,4,,0.02,4,Rain,182
2012-10-23,79,67,55,52,48,46,75,55,32,30.16,30.09,30.04,10,10,10,12,3,16,0.00,0,,210
2012-10-24,78,65,52,54,49,47,85,61,35,30.16,30.10,30.05,10,10,10,9,2,,0.00,1,,209
2012-10-25,79,64,49,54,51,46,99,64,38,30.09,30.03,29.98,10,10,10,16,3,22,0.00,0,,204
2012-10-26,63,54,44,55,49,45,100,88,69,30.14,30.08,30.01,10,9,3,13,5,17,0.06,6,Rain,350
2012-10-27,50,46,42,45,42,36,100,85,66,30.12,30.07,30.04,10,9,3,13,8,20,0.14,8,Rain,12
2012-10-28,54,48,41,37,34,29,69,59,46,30.08,30.04,30.01,10,10,10,18,9,23,0.00,7,,4
2012-10-29,54,45,36,30,26,14,76,53,21,30.09,30.02,29.86,10,10,10,21,8,28,0.00,0,,333
2012-10-30,46,43,40,30,28,26,64,54,45,29.85,29.77,29.73,10,10,10,16,11,25,0.00,5,,304
2012-10-31,53,42,32,29,27,25,86,55,38,29.93,29.86,29.79,10,10,10,16,7,24,0.00,0,,274